| time (UTC) | temp F | wind direction | speed MPH | gust MPH | rain 1hr in | rain 24hr in | rain mn in | humidity % | barometer mb |
| 20260510141033 | 74 | 160 | 7.0 | 11.0 | 0.00 | 0.00 | 0.00 | 34 | 1013.1 |
| 20260510140048 | 74 | 163 | 7.0 | 15.0 | 0.00 | 0.00 | 0.00 | 33 | 1013.0 |
| 20260510135030 | 75 | 161 | 6.0 | 10.0 | 0.00 | 0.00 | 0.00 | 32 | 1013.1 |
| 20260510134019 | 75 | 158 | 8.0 | 18.0 | 0.00 | 0.00 | 0.00 | 31 | 1013.1 |
| 20260510133048 | 75 | 163 | 7.0 | 14.0 | 0.00 | 0.00 | 0.00 | 31 | 1013.3 |
| 20260510132015 | 75 | 156 | 8.0 | 16.0 | 0.00 | 0.00 | 0.00 | 31 | 1013.3 |
| 20260510131033 | 76 | 148 | 7.0 | 14.0 | 0.00 | 0.00 | 0.00 | 30 | 1013.3 |
| 20260510130022 | 76 | 152 | 8.0 | 14.0 | 0.00 | 0.00 | 0.00 | 30 | 1013.5 |
| 20260510125021 | 76 | 145 | 8.0 | 15.0 | 0.00 | 0.00 | 0.00 | 31 | 1013.6 |
| 20260510124020 | 75 | 163 | 6.0 | 10.0 | 0.00 | 0.00 | 0.00 | 31 | 1013.7 |
| 20260510123033 | 76 | 150 | 8.0 | 16.0 | 0.00 | 0.00 | 0.00 | 31 | 1013.6 |
| 20260510122034 | 76 | 176 | 5.0 | 10.0 | 0.00 | 0.00 | 0.00 | 31 | 1013.8 |
| 20260510121033 | 76 | 167 | 7.0 | 15.0 | 0.00 | 0.00 | 0.00 | 31 | 1013.8 |
| 20260510120028 | 77 | 155 | 7.0 | 13.0 | 0.00 | 0.00 | 0.00 | 30 | 1014.0 |
| 20260510115030 | 76 | 158 | 9.0 | 15.0 | 0.00 | 0.00 | 0.00 | 30 | 1014.1 |
| 20260510114025 | 76 | 152 | 9.0 | 14.0 | 0.00 | 0.00 | 0.00 | 31 | 1014.3 |
| 20260510113034 | 75 | 146 | 8.0 | 13.0 | 0.00 | 0.00 | 0.00 | 31 | 1014.3 |
| 20260510112043 | 75 | 152 | 8.0 | 15.0 | 0.00 | 0.00 | 0.00 | 31 | 1014.5 |
| 20260510111022 | 76 | 151 | 6.0 | 13.0 | 0.00 | 0.00 | 0.00 | 32 | 1014.6 |
| 20260510110019 | 76 | 140 | 5.0 | 10.0 | 0.00 | 0.00 | 0.00 | 31 | 1014.6 |
| 20260510105033 | 75 | 138 | 3.0 | 8.0 | 0.00 | 0.00 | 0.00 | 38 | 1014.9 |
| 20260510104028 | 73 | 107 | 2.0 | 8.0 | 0.00 | 0.00 | 0.00 | 42 | 1015.1 |
| 20260510103030 | 71 | 125 | 3.0 | 7.0 | 0.00 | 0.00 | 0.00 | 44 | 1015.2 |
| 20260510102018 | 72 | 99 | 1.0 | 3.0 | 0.00 | 0.00 | 0.00 | 44 | 1015.4 |
| 20260510101027 | 69 | 104 | 2.0 | 4.0 | 0.00 | 0.00 | 0.00 | 47 | 1015.8 |
| 20260510100015 | 70 | 128 | 2.0 | 4.0 | 0.00 | 0.00 | 0.00 | 47 | 1015.9 |
| 20260510095053 | 68 | 139 | 1.0 | 3.0 | 0.00 | 0.00 | 0.00 | 48 | 1016.1 |
| 20260510094022 | 69 | 58 | 1.0 | 3.0 | 0.00 | 0.00 | 0.00 | 47 | 1016.2 |
| 20260510093022 | 67 | 77 | 1.0 | 3.0 | 0.00 | 0.00 | 0.00 | 50 | 1016.3 |
| 20260510092020 | 65 | 16 | 1.0 | 4.0 | 0.00 | 0.00 | 0.00 | 53 | 1016.5 |
| 20260510091027 | 65 | 14 | 1.0 | 3.0 | 0.00 | 0.00 | 0.00 | 53 | 1016.7 |
| 20260510090113 | 64 | 20 | 1.0 | 3.0 | 0.00 | 0.00 | 0.00 | 52 | 1016.8 |
| 20260510085030 | 63 | 43 | 1.0 | 2.0 | 0.00 | 0.00 | 0.00 | 54 | 1016.7 |
| 20260510084018 | 62 | 44 | 1.0 | 3.0 | 0.00 | 0.00 | 0.00 | 57 | 1016.9 |
| 20260510083048 | 61 | 13 | 1.0 | 3.0 | 0.00 | 0.00 | 0.00 | 58 | 1017.0 |
| 20260510082034 | 61 | 4 | 1.0 | 3.0 | 0.00 | 0.00 | 0.00 | 60 | 1017.1 |
| 20260510081033 | 60 | 33 | 1.0 | 2.0 | 0.00 | 0.00 | 0.00 | 64 | 1017.3 |
| 20260510080022 | 59 | 25 | 1.0 | 2.0 | 0.00 | 0.00 | 0.00 | 65 | 1017.4 |
| 20260510075022 | 59 | 24 | 1.0 | 3.0 | 0.00 | 0.00 | 0.00 | 65 | 1017.6 |
| 20260510074019 | 59 | 55 | 0.0 | 1.0 | 0.00 | 0.00 | 0.00 | 63 | 1017.7 |
| 20260510073053 | 57 | 42 | 1.0 | 2.0 | 0.00 | 0.00 | 0.00 | 67 | 1017.9 |
| 20260510072033 | 56 | 18 | 1.0 | 2.0 | 0.00 | 0.00 | 0.00 | 70 | 1017.9 |
| 20260510071034 | 55 | 22 | 1.0 | 2.0 | 0.00 | 0.00 | 0.00 | 71 | 1018.1 |
| 20260510070026 | 55 | 28 | 1.0 | 3.0 | 0.00 | 0.00 | 0.00 | 72 | 1018.2 |
| 20260510065027 | 54 | 104 | 1.0 | 2.0 | 0.00 | 0.00 | 0.00 | 74 | 1018.4 |
| 20260510064015 | 53 | 84 | 1.0 | 2.0 | 0.00 | 0.00 | 0.00 | 75 | 1018.5 |
| 20260510063034 | 52 | 126 | 1.0 | 2.0 | 0.00 | 0.00 | 0.00 | 77 | 1018.7 |
| 20260510062022 | 50 | 161 | 1.0 | 2.0 | 0.00 | 0.00 | 0.00 | 82 | 1018.6 |
| 20260510061022 | 50 | 158 | 1.0 | 2.0 | 0.00 | 0.00 | 0.00 | 82 | 1018.8 |
| 20260510060019 | 49 | 146 | 1.0 | 2.0 | 0.00 | 0.00 | 0.00 | 82 | 1018.9 |
| 20260510055053 | 49 | 145 | 2.0 | 2.0 | 0.00 | 0.00 | 0.00 | 83 | 1019.2 |
| 20260510054053 | 48 | 8 | 0.0 | 1.0 | 0.00 | 0.00 | 0.00 | 84 | 1019.2 |
| 20260510053033 | 48 | 25 | 0.0 | 2.0 | 0.00 | 0.00 | 0.00 | 85 | 1019.5 |
| 20260510052029 | 47 | 13 | 0.0 | 1.0 | 0.00 | 0.00 | 0.00 | 87 | 1019.5 |
| 20260510051051 | 44 | 0.0 | 0.0 | 0.00 | 0.00 | 0.00 | 91 | 1019.5 | |
| 20260510050027 | 44 | 11 | 0.0 | 1.0 | 0.00 | 0.00 | 0.00 | 91 | 1019.5 |
| 20260510045048 | 44 | 20 | 0.0 | 1.0 | 0.00 | 0.00 | 0.00 | 90 | 1019.5 |
| 20260510044016 | 43 | 0.0 | 0.0 | 0.00 | 0.00 | 0.00 | 91 | 1019.7 | |
| 20260510043053 | 44 | 140 | 0.0 | 1.0 | 0.00 | 0.00 | 0.00 | 91 | 1019.8 |
| 20260510042019 | 44 | 56 | 0.0 | 1.0 | 0.00 | 0.00 | 0.00 | 90 | 1019.9 |
| 20260510041033 | 44 | 0.0 | 0.0 | 0.00 | 0.00 | 0.00 | 90 | 1019.9 | |
| 20260510040033 | 44 | 0.0 | 0.0 | 0.00 | 0.00 | 0.00 | 89 | 1019.9 | |
| 20260510035033 | 44 | 0.0 | 0.0 | 0.00 | 0.00 | 0.00 | 89 | 1020.1 | |
| 20260510034028 | 44 | 325 | 0.0 | 1.0 | 0.00 | 0.00 | 0.00 | 90 | 1020.2 |
| 20260510033030 | 45 | 63 | 0.0 | 2.0 | 0.00 | 0.00 | 0.00 | 89 | 1020.3 |
| 20260510032027 | 45 | 316 | 0.0 | 1.0 | 0.00 | 0.00 | 0.00 | 88 | 1020.3 |
| 20260510031028 | 45 | 287 | 0.0 | 1.0 | 0.00 | 0.00 | 0.00 | 88 | 1020.4 |
| 20260510030015 | 45 | 273 | 1.0 | 2.0 | 0.00 | 0.00 | 0.00 | 87 | 1020.4 |
| 20260510025023 | 45 | 0.0 | 0.0 | 0.00 | 0.00 | 0.00 | 87 | 1020.3 | |
| 20260510024020 | 45 | 320 | 0.0 | 1.0 | 0.00 | 0.00 | 0.00 | 87 | 1020.4 |
| 20260510023034 | 45 | 318 | 0.0 | 2.0 | 0.00 | 0.00 | 0.00 | 87 | 1020.5 |
| 20260510022033 | 46 | 14 | 0.0 | 1.0 | 0.00 | 0.00 | 0.00 | 86 | 1020.5 |
| 20260510021030 | 46 | 348 | 1.0 | 2.0 | 0.00 | 0.00 | 0.00 | 87 | 1020.5 |
| 20260510020019 | 46 | 0.0 | 0.0 | 0.00 | 0.00 | 0.00 | 86 | 1020.4 | |
| 20260510015029 | 47 | 347 | 0.0 | 1.0 | 0.00 | 0.00 | 0.00 | 84 | 1020.4 |
| 20260510014017 | 47 | 347 | 1.0 | 1.0 | 0.00 | 0.00 | 0.00 | 84 | 1020.4 |
| 20260510013027 | 47 | 0.0 | 0.0 | 0.00 | 0.00 | 0.00 | 84 | 1020.7 | |
| 20260510012114 | 47 | 311 | 1.0 | 1.0 | 0.00 | 0.00 | 0.00 | 85 | 1020.5 |
| 20260510011030 | 47 | 35 | 1.0 | 2.0 | 0.00 | 0.00 | 0.00 | 85 | 1020.4 |
| 20260510010018 | 48 | 341 | 0.0 | 1.0 | 0.00 | 0.00 | 0.00 | 82 | 1020.5 |
| 20260510005028 | 47 | 341 | 0.0 | 1.0 | 0.00 | 0.00 | 0.00 | 83 | 1020.7 |
| 20260510004055 | 49 | 308 | 0.0 | 1.0 | 0.00 | 0.00 | 0.00 | 80 | 1020.7 |
| 20260510003033 | 48 | 332 | 1.0 | 3.0 | 0.00 | 0.00 | 0.00 | 81 | 1020.7 |
| 20260510002019 | 50 | 342 | 0.0 | 2.0 | 0.00 | 0.00 | 0.00 | 79 | 1020.7 |
| 20260510001033 | 49 | 341 | 2.0 | 2.0 | 0.00 | 0.00 | 0.00 | 80 | 1020.8 |
| 20260510000033 | 50 | 28 | 0.0 | 1.0 | 0.00 | 0.00 | 0.00 | 79 | 1020.9 |
| 20260509235034 | 51 | 334 | 0.0 | 1.0 | 0.00 | 0.00 | 0.00 | 77 | 1021.0 |
| 20260509234020 | 51 | 334 | 3.0 | 4.0 | 0.00 | 0.00 | 0.00 | 76 | 1021.0 |
| 20260509233034 | 53 | 144 | 1.0 | 3.0 | 0.00 | 0.00 | 0.00 | 71 | 1021.1 |
| 20260509232032 | 53 | 282 | 1.0 | 2.0 | 0.00 | 0.00 | 0.00 | 72 | 1021.2 |
| 20260509231031 | 55 | 117 | 2.0 | 4.0 | 0.00 | 0.00 | 0.00 | 70 | 1021.2 |
| 20260509230045 | 55 | 149 | 2.0 | 6.0 | 0.00 | 0.00 | 0.00 | 69 | 1021.2 |
| 20260509225033 | 53 | 127 | 1.0 | 4.0 | 0.00 | 0.00 | 0.00 | 72 | 1021.2 |
| 20260509224019 | 54 | 178 | 2.0 | 3.0 | 0.00 | 0.00 | 0.00 | 71 | 1021.3 |
| 20260509223028 | 54 | 199 | 1.0 | 4.0 | 0.00 | 0.00 | 0.00 | 71 | 1021.4 |
| 20260509222015 | 54 | 185 | 1.0 | 3.0 | 0.00 | 0.00 | 0.00 | 72 | 1021.6 |
| 20260509221033 | 53 | 198 | 2.0 | 3.0 | 0.00 | 0.00 | 0.00 | 72 | 1021.5 |
| 20260509220019 | 54 | 233 | 1.0 | 2.0 | 0.00 | 0.00 | 0.00 | 72 | 1021.5 |
| 20260509215033 | 54 | 252 | 1.0 | 3.0 | 0.00 | 0.00 | 0.00 | 71 | 1021.4 |
| 20260509214033 | 55 | 159 | 1.0 | 3.0 | 0.00 | 0.00 | 0.00 | 69 | 1021.5 |
| 20260509213134 | 55 | 281 | 1.0 | 3.0 | 0.00 | 0.00 | 0.00 | 70 | 1021.5 |
| 20260509212033 | 54 | 319 | 0.0 | 1.0 | 0.00 | 0.00 | 0.00 | 73 | 1021.5 |
| 20260509211033 | 54 | 331 | 0.0 | 1.0 | 0.00 | 0.00 | 0.00 | 72 | 1021.5 |
| 20260509210026 | 54 | 12 | 1.0 | 1.0 | 0.00 | 0.00 | 0.00 | 71 | 1021.5 |
| 20260509205027 | 56 | 258 | 1.0 | 2.0 | 0.00 | 0.00 | 0.00 | 67 | 1021.6 |
| 20260509204054 | 56 | 248 | 1.0 | 3.0 | 0.00 | 0.00 | 0.00 | 69 | 1021.5 |
| 20260509203053 | 56 | 347 | 0.0 | 2.0 | 0.00 | 0.00 | 0.00 | 69 | 1021.6 |
| 20260509202016 | 56 | 223 | 2.0 | 3.0 | 0.00 | 0.00 | 0.00 | 69 | 1021.4 |
| 20260509201053 | 56 | 294 | 1.0 | 2.0 | 0.00 | 0.00 | 0.00 | 68 | 1021.4 |
| 20260509200020 | 56 | 314 | 0.0 | 2.0 | 0.00 | 0.00 | 0.00 | 68 | 1021.3 |
| 20260509195053 | 57 | 7 | 1.0 | 3.0 | 0.00 | 0.00 | 0.00 | 66 | 1021.2 |
| 20260509194033 | 59 | 289 | 1.0 | 3.0 | 0.00 | 0.00 | 0.00 | 63 | 1021.3 |
| 20260509193033 | 58 | 293 | 1.0 | 3.0 | 0.00 | 0.00 | 0.00 | 64 | 1021.4 |
| 20260509192028 | 59 | 305 | 0.0 | 2.0 | 0.00 | 0.00 | 0.00 | 64 | 1021.3 |
| 20260509191030 | 59 | 153 | 1.0 | 2.0 | 0.00 | 0.00 | 0.00 | 63 | 1021.2 |
| 20260509190029 | 60 | 191 | 2.0 | 4.0 | 0.00 | 0.00 | 0.00 | 62 | 1021.0 |
| 20260509185050 | 59 | 164 | 2.0 | 8.0 | 0.00 | 0.00 | 0.00 | 63 | 1021.0 |
| 20260509184058 | 60 | 137 | 1.0 | 4.0 | 0.00 | 0.00 | 0.00 | 62 | 1020.8 |
| 20260509183027 | 61 | 154 | 3.0 | 6.0 | 0.00 | 0.00 | 0.00 | 60 | 1020.6 |
| 20260509182034 | 61 | 174 | 3.0 | 6.0 | 0.00 | 0.00 | 0.00 | 59 | 1020.5 |
| 20260509181033 | 62 | 173 | 4.0 | 10.0 | 0.00 | 0.00 | 0.00 | 57 | 1020.6 |
| 20260509180037 | 61 | 193 | 2.0 | 6.0 | 0.00 | 0.00 | 0.00 | 58 | 1020.6 |
| 20260509175033 | 62 | 185 | 2.0 | 3.0 | 0.00 | 0.00 | 0.00 | 57 | 1020.4 |
| 20260509174022 | 62 | 231 | 4.0 | 9.0 | 0.00 | 0.00 | 0.00 | 57 | 1020.4 |
| 20260509173022 | 63 | 175 | 3.0 | 8.0 | 0.00 | 0.00 | 0.00 | 55 | 1020.3 |
| 20260509172019 | 62 | 192 | 2.0 | 6.0 | 0.00 | 0.00 | 0.00 | 59 | 1020.4 |
| 20260509171033 | 64 | 174 | 2.0 | 6.0 | 0.00 | 0.00 | 0.00 | 53 | 1020.4 |
| 20260509170040 | 65 | 165 | 5.0 | 11.0 | 0.00 | 0.00 | 0.00 | 51 | 1020.5 |
| 20260509165033 | 66 | 157 | 8.0 | 14.0 | 0.00 | 0.00 | 0.00 | 49 | 1020.4 |
| 20260509164109 | 66 | 153 | 7.0 | 16.0 | 0.00 | 0.00 | 0.00 | 50 | 1020.4 |
| 20260509163031 | 66 | 147 | 9.0 | 16.0 | 0.00 | 0.00 | 0.00 | 49 | 1020.8 |
| 20260509162019 | 66 | 143 | 14.0 | 19.0 | 0.00 | 0.00 | 0.00 | 50 | 1020.9 |
| 20260509161029 | 66 | 145 | 14.0 | 21.0 | 0.00 | 0.00 | 0.00 | 51 | 1021.1 |
| 20260509160026 | 65 | 143 | 13.0 | 22.0 | 0.00 | 0.00 | 0.00 | 53 | 1021.2 |
| 20260509155032 | 65 | 143 | 13.0 | 24.0 | 0.00 | 0.00 | 0.00 | 54 | 1021.2 |
| 20260509154019 | 65 | 142 | 13.0 | 21.0 | 0.00 | 0.00 | 0.00 | 54 | 1021.4 |
| 20260509153033 | 65 | 143 | 14.0 | 21.0 | 0.00 | 0.00 | 0.00 | 54 | 1021.5 |
| 20260509152033 | 65 | 144 | 14.0 | 22.0 | 0.00 | 0.00 | 0.00 | 55 | 1021.6 |
| 20260509151033 | 64 | 143 | 15.0 | 22.0 | 0.00 | 0.00 | 0.00 | 56 | 1021.7 |
| 20260509150039 | 65 | 155 | 14.0 | 22.0 | 0.00 | 0.00 | 0.00 | 54 | 1021.7 |
| 20260509145031 | 65 | 145 | 14.0 | 23.0 | 0.00 | 0.00 | 0.00 | 52 | 1021.7 |
| 20260509144019 | 66 | 166 | 11.0 | 19.0 | 0.00 | 0.00 | 0.00 | 51 | 1021.6 |
| 20260509143030 | 66 | 164 | 7.0 | 17.0 | 0.00 | 0.00 | 0.00 | 49 | 1021.7 |
| 20260509142023 | 66 | 166 | 8.0 | 18.0 | 0.00 | 0.00 | 0.00 | 50 | 1021.6 |